Weather reports worldwide

Advertisment
Carlisle, United Kingdom (3220): temperature & dewpoint: 16.09.2018 14:00:00 - 22.09.2018 14:00:00 (BST)Carlisle, United Kingdom (3220): temperature -100cm: 16.09.2018 14:00:00 - 22.09.2018 14:00:00 (BST)Carlisle, United Kingdom (3220): reduced air pressure: 16.09.2018 14:00:00 - 22.09.2018 14:00:00 (BST)Carlisle, United Kingdom (3220): visibility: 16.09.2018 14:00:00 - 22.09.2018 14:00:00 (BST)Carlisle, United Kingdom (3220): precipitation: 16.09.2018 14:00:00 - 22.09.2018 14:00:00 (BST)
Date & Time tt [°C] td [°C] tt -100cm [°C] ppp [hPa] vv [km] rr [mm]
22.09.2018 14:00:00 11,1 6,8 - 1015,3 50 0,0
22.09.2018 13:00:00 11,5 5,9 - 1015,4 50 0,0
22.09.2018 12:00:00 11,1 6,5 - 1015,3 50 0,0
22.09.2018 11:00:00 10,5 6,2 - 1015,1 50 0,0
22.09.2018 10:00:00 10,1 6,2 14,0 1014,9 40 0,0
22.09.2018 09:00:00 9,5 6,0 - 1014,3 40 0,0
22.09.2018 08:00:00 8,7 6,0 - 1014,2 40 0,0
22.09.2018 07:00:00 8,7 5,7 - 1013,8 35 0,0
22.09.2018 06:00:00 8,6 5,6 - 1013,6 35 0,0
22.09.2018 05:00:00 8,8 5,3 - 1013,4 40 0,0
22.09.2018 04:00:00 8,9 5,1 - 1013,3 40 0,0
22.09.2018 03:00:00 8,8 5,2 - 1013,1 35 0,0
22.09.2018 02:00:00 9,2 5,6 - 1012,4 35 0,0
22.09.2018 01:00:00 10,0 6,3 - 1012,4 35 0,0
22.09.2018 00:00:00 9,2 6,0 - 1012,1 50 0,0
21.09.2018 23:00:00 10,1 6,3 - 1011,6 50 0,0
21.09.2018 22:00:00 10,0 6,2 - 1010,7 50 0,0
21.09.2018 21:00:00 10,1 6,6 - 1010,1 50 0,0
21.09.2018 20:00:00 10,6 6,2 - 1009,2 50 0,0
21.09.2018 19:00:00 11,6 6,8 - 1007,8 50 0,0
21.09.2018 18:00:00 12,9 5,8 - 1006,4 50 0,0
21.09.2018 17:00:00 12,7 7,1 - 1004,9 50 0,0
21.09.2018 16:00:00 13,3 6,9 - 1003,2 50 0,0
21.09.2018 15:00:00 12,7 6,1 - 1001,9 50 0,0
21.09.2018 14:00:00 11,5 6,8 - 1000,5 50 0,0
21.09.2018 13:00:00 11,6 7,9 - 999,1 50 0,2
21.09.2018 12:00:00 11,1 6,7 - 998,4 50 0,0
21.09.2018 11:00:00 11,2 7,1 - 998,2 50 0,0
21.09.2018 10:00:00 9,8 6,8 14,2 997,6 50 0,0
21.09.2018 09:00:00 8,6 6,9 - 997,1 40 0,0
21.09.2018 08:00:00 8,3 5,7 - 996,2 50 0,0
21.09.2018 07:00:00 7,6 5,9 - 995,3 50 0,0
21.09.2018 06:00:00 7,2 5,7 - 995,0 50 0,0
21.09.2018 05:00:00 7,0 5,6 - 994,2 30 0,6
21.09.2018 04:00:00 6,8 5,6 - 993,4 9 2,0
21.09.2018 03:00:00 6,2 5,6 - 992,3 7 3,6
21.09.2018 02:00:00 6,3 5,5 - 991,5 3,3 4,4
21.09.2018 01:00:00 6,8 6,0 - 990,1 2,9 3,0
21.09.2018 00:00:00 7,7 6,8 - 991,0 14 0,8
20.09.2018 23:00:00 7,6 7,1 - 992,9 6 2,6
20.09.2018 22:00:00 7,6 7,1 - 994,6 4,2 4,6
20.09.2018 21:00:00 8,4 7,9 - 996,5 2,0 2,2
20.09.2018 20:00:00 8,9 7,8 - 997,8 5 0,6
20.09.2018 19:00:00 9,7 8,0 - 999,2 15 0,0
20.09.2018 18:00:00 9,9 8,2 - 1000,2 30 0,4
20.09.2018 17:00:00 11,2 9,0 - 1002,0 10 0,6
20.09.2018 16:00:00 12,5 7,0 - 1003,5 35 0,0
20.09.2018 15:00:00 12,6 7,2 - 1004,3 40 0,0
20.09.2018 14:00:00 13,0 6,8 - 1005,5 40 0,0
20.09.2018 13:00:00 13,2 7,0 - 1006,3 25 0,0
20.09.2018 12:00:00 13,2 6,3 - 1006,8 50 0,0
20.09.2018 11:00:00 13,0 7,1 - 1007,0 40 0,0
20.09.2018 10:00:00 12,6 8,4 14,5 1007,5 35 0,0
20.09.2018 09:00:00 11,0 7,7 - 1007,4 35 0,0
20.09.2018 08:00:00 10,0 7,3 - 1007,3 35 0,0
20.09.2018 07:00:00 9,8 6,5 - 1007,0 30 0,0
20.09.2018 06:00:00 10,2 6,6 - 1006,7 3,6 0,0
20.09.2018 05:00:00 10,2 7,2 - 1006,7 30 0,2
20.09.2018 04:00:00 11,2 6,7 - 1006,5 27 0,0
20.09.2018 03:00:00 11,5 6,9 - 1006,4 30 0,2
20.09.2018 02:00:00 11,2 7,1 - 1006,2 29 1,0
20.09.2018 01:00:00 11,0 7,3 - 1006,0 30 1,0
20.09.2018 00:00:00 11,8 5,6 - 1005,9 35 0,0
19.09.2018 23:00:00 11,8 6,3 - 1005,3 40 0,0
19.09.2018 22:00:00 12,2 6,0 - 1005,2 35 0,0
19.09.2018 21:00:00 12,3 6,0 - 1004,9 40 0,0
19.09.2018 20:00:00 12,4 6,2 - 1004,1 30 0,0
19.09.2018 19:00:00 12,0 7,9 - 1003,8 30 1,0
19.09.2018 18:00:00 13,3 6,4 - 1002,6 35 0,0
19.09.2018 17:00:00 13,4 6,5 - 1001,3 35 0,0
19.09.2018 16:00:00 14,1 6,6 - 999,7 30 0,0
19.09.2018 15:00:00 14,2 6,6 - 998,0 30 0,0
19.09.2018 14:00:00 15,0 6,7 - 996,7 28 0,0
19.09.2018 13:00:00 15,9 9,3 - 994,5 20 1,8
19.09.2018 12:00:00 17,2 13,1 - 992,8 23 0,0
19.09.2018 11:00:00 17,9 10,0 - 993,4 35 0,0
19.09.2018 10:00:00 17,2 10,3 14,5 995,3 45 0,0
19.09.2018 09:00:00 15,5 11,0 - 997,4 50 0,0
19.09.2018 08:00:00 14,5 10,7 - 998,7 40 0,0
19.09.2018 07:00:00 14,0 8,9 - 1000,8 35 0,0
19.09.2018 06:00:00 12,8 8,3 - 1001,9 30 0,0
19.09.2018 05:00:00 13,6 9,5 - 1003,0 30 0,0
19.09.2018 04:00:00 13,9 10,2 - 1003,1 26 0,0
19.09.2018 03:00:00 14,8 10,9 - 1003,2 24 0,0
19.09.2018 02:00:00 15,1 10,9 - 1002,4 29 0,0
19.09.2018 01:00:00 15,6 11,5 - 1002,4 28 0,0
19.09.2018 00:00:00 15,9 12,0 - 1001,9 26 0,0
18.09.2018 23:00:00 16,3 12,1 - 1001,6 24 0,0
18.09.2018 22:00:00 16,6 13,2 - 1001,5 19 0,0
18.09.2018 21:00:00 17,0 13,4 - 1001,1 20 0,0
18.09.2018 20:00:00 17,5 12,8 - 1000,8 26 0,0
18.09.2018 19:00:00 17,9 13,0 - 1000,3 29 0,0
18.09.2018 18:00:00 17,6 13,7 - 1000,5 28 0,0
18.09.2018 17:00:00 17,5 13,6 - 1000,7 35 0,0
18.09.2018 16:00:00 16,3 13,2 - 1000,1 35 0,0
18.09.2018 15:00:00 15,9 12,0 - 1000,1 45 0,0
18.09.2018 14:00:00 17,2 12,7 - 999,4 50 0,0
18.09.2018 13:00:00 16,4 14,2 - 997,5 50 0,2
18.09.2018 12:00:00 16,5 15,7 - 996,3 8 0,2
18.09.2018 11:00:00 16,7 15,9 - 995,3 15 0,2
18.09.2018 10:00:00 17,4 16,3 14,5 994,0 27 0,0
18.09.2018 09:00:00 16,2 15,5 - 993,4 25 0,2
18.09.2018 08:00:00 15,2 14,6 - 993,5 25 0,6
18.09.2018 07:00:00 14,7 13,8 - 994,0 4,9 3,6
18.09.2018 06:00:00 15,4 12,6 - 994,8 4,1 0,2
18.09.2018 05:00:00 16,1 11,6 - 995,4 45 0,0
18.09.2018 04:00:00 15,8 12,1 - 997,2 50 0,0
18.09.2018 03:00:00 15,2 12,5 - 998,5 45 0,0
18.09.2018 02:00:00 15,6 12,8 - 999,8 50 0,0
18.09.2018 01:00:00 16,2 13,9 - 1000,6 50 0,0
18.09.2018 00:00:00 16,2 13,6 - 1001,5 50 0,0
17.09.2018 23:00:00 17,0 13,9 - 1002,3 50 0,0
17.09.2018 22:00:00 18,2 13,2 - 1002,9 50 0,0
17.09.2018 21:00:00 18,6 13,3 - 1003,3 50 0,0
17.09.2018 20:00:00 18,4 14,1 - 1003,7 50 0,0
17.09.2018 19:00:00 18,6 14,5 - 1003,6 50 0,0
17.09.2018 18:00:00 18,6 14,8 - 1004,0 50 0,0
17.09.2018 17:00:00 18,6 15,6 - 1004,6 50 0,0
17.09.2018 16:00:00 17,8 15,6 - 1005,6 50 0,2
17.09.2018 15:00:00 17,9 14,3 - 1006,2 40 0,0
17.09.2018 14:00:00 18,1 12,5 - 1007,4 50 0,0
17.09.2018 13:00:00 16,5 11,1 - 1008,1 50 0,0
17.09.2018 12:00:00 16,2 11,5 - 1009,2 50 0,0
17.09.2018 11:00:00 15,0 11,5 - 1010,3 50 0,0
17.09.2018 10:00:00 14,6 12,0 14,5 1010,4 35 0,0
17.09.2018 09:00:00 13,0 11,1 - 1011,2 40 0,0
17.09.2018 08:00:00 12,1 10,8 - 1011,5 40 0,0
17.09.2018 07:00:00 12,2 10,3 - 1011,8 50 0,0
17.09.2018 06:00:00 11,0 9,9 - 1012,1 35 0,0
17.09.2018 05:00:00 10,8 9,7 - 1012,3 35 0,0
17.09.2018 04:00:00 11,8 10,8 - 1012,7 30 0,0
17.09.2018 03:00:00 11,8 9,6 - 1013,0 50 0,0
17.09.2018 02:00:00 12,6 10,1 - 1013,1 50 0,0
17.09.2018 01:00:00 12,6 10,2 - 1013,2 45 0,0
17.09.2018 00:00:00 12,5 10,1 - 1013,3 45 0,0
16.09.2018 23:00:00 13,2 10,1 - 1013,4 50 0,0
16.09.2018 22:00:00 13,3 10,8 - 1013,4 45 0,0
16.09.2018 21:00:00 13,4 10,8 - 1013,6 45 0,0
16.09.2018 20:00:00 13,5 10,7 - 1013,2 45 0,0
16.09.2018 19:00:00 14,5 10,8 - 1013,0 50 0,0
16.09.2018 18:00:00 15,4 10,2 - 1012,7 50 0,0
16.09.2018 17:00:00 16,0 10,7 - 1012,4 50 0,0
16.09.2018 16:00:00 16,2 12,0 - 1012,0 45 0,0
16.09.2018 15:00:00 15,2 11,1 - 1011,9 50 0,0
16.09.2018 14:00:00 15,2 10,8 - 1011,4 50 0,0

tt = temperature
td = dewpoint
tt -100cm = temperature -100cm
ppp = reduced air pressure
vv = visibility
rr = precipitation

Next stations